Home > Time Zones > World Clock > Weather > China > Hefei > Past weeks

Flag for China Weather past 2 weeks in Hefei, Anhui, China

Now
75 °F

Haze.


Feels Like: 77 °F
Forecast: 70 / 86 °F
Wind: 3 mph from East

Location: Hefei Airport

Current Time: May 26, 2015 at 10:00:22 AM

Latest Report: May 26, 2015 at 9:00 AM


Visibility: 2 mi

Pressure: 29.83 "Hg

Humidity: 65%

Dew point: 63 °F

Location of HefeiLocation

Historic Weather in Hefei — Graph

°F

Hefei temperature yesterday

Maximum temperature yesterday: 88 °F (at 3:00 PM)
Minimum temperature yesterday: 68 °F (at 4:00 AM)
Average temperature yesterday: 78 °F

Past Weeks' High & Low Weather Summary

 TemperatureHumidityPressure
High90 °F (May 14, 2:00 PM)100% (May 15, 7:00 AM)30.04 "Hg (May 15, 7:00 AM)
Low54 °F (May 12, 2:00 AM)26% (May 20, 2:00 PM)29.59 "Hg (May 13, 4:00 PM)
Average73 °F66%29.79 "Hg
* Reported May 11 9:00 AM — May 26 9:00 AM, Hefei, Weather by CustomWeather, © 2015

Note: Actual official high and low records may vary slightly from our data, if they occured in-between our weather recording intervals... More about our weather records

Advertising

Hefei weather history for previous 24 hours

 ConditionsComfort  
Time TempWeatherWind HumidityBarometerVisibility
9:00 AM
Tue, May 26
75 °FHaze.3 mph65%29.83 "Hg2 mi
8:00 AM75 °FHaze.6 mph65%29.83 "Hg2 mi
7:00 AM72 °FHaze.6 mph73%29.80 "Hg2 mi
6:00 AM72 °FHaze.3 mph73%29.80 "Hg2 mi
5:00 AM72 °FHaze.3 mph73%29.80 "Hg2 mi
4:00 AM73 °FHaze.3 mph69%29.80 "Hg2 mi
3:00 AM73 °FHaze.1 mph69%29.80 "Hg2 mi
2:00 AM75 °FHaze.3 mph61%29.80 "Hg3 mi
1:00 AM73 °FHaze.3 mph74%29.80 "Hg3 mi
12:00 AM75 °FClear.3 mph65%29.80 "Hg4 mi
11:00 PM
Mon, May 25
77 °FClear.3 mph57%29.80 "Hg4 mi
10:00 PM77 °FClear.3 mph57%29.80 "Hg4 mi
9:00 PM79 °FClear.1 mph51%29.80 "Hg4 mi
8:00 PM81 °FClear.3 mph48%29.77 "Hg4 mi
7:00 PM81 °FClear.3 mph48%29.77 "Hg4 mi
6:00 PM82 °FSunny.3 mph45%29.74 "Hg10 mi
5:00 PM84 °FPassing clouds.6 mph37%29.74 "HgN/A
4:00 PM86 °FPassing clouds.8 mph33%29.74 "HgN/A
3:00 PM88 °FPassing clouds.8 mph33%29.74 "HgN/A
2:00 PM86 °FPassing clouds.8 mph31%29.74 "HgN/A
1:00 PM84 °FSunny.3 mph35%29.77 "Hg10 mi
12:00 PM82 °FPassing clouds.8 mph40%29.80 "HgN/A
11:00 AM82 °FClear.6 mph42%29.80 "Hg6 mi
10:00 AM81 °FClear.8 mph42%29.80 "Hg6 mi
Weather by CustomWeather, © 2015

See weather overviewHow to use our weather pages